This is the latest recevied weather packets stored in our database for station/object EA1IDU-12. If no packets are shown the sender has not sent any weather packets the latest 10 day(s).
| Time | Temp. | Humidity | Pressure | Rain* | Wind** | Luminosity | Snow |
|---|---|---|---|---|---|---|---|
| 1787882114 | 10.56° C | 91% | 1026.8 hPa | - | - | - | - |
| 1787881214 | 10.56° C | 90% | 1026.6 hPa | - | - | - | - |
| 1787880314 | 10.56° C | 90% | 1026.5 hPa | - | - | - | - |
| 1787879413 | 10.56° C | 90% | 1026.5 hPa | - | - | - | - |
| 1787878513 | 10° C | 89% | 1026.5 hPa | - | - | - | - |
| 1787877613 | 10° C | 88% | 1026.3 hPa | - | - | - | - |
| 1787876713 | 10.56° C | 88% | 1026.5 hPa | - | - | - | - |
| 1787875813 | 10.56° C | 88% | 1026.5 hPa | - | - | - | - |
| 1787874913 | 10.56° C | 88% | 1026.6 hPa | - | - | - | - |
| 1787874012 | 10.56° C | 87% | 1026.4 hPa | - | - | - | - |
| 1787873112 | 10.56° C | 87% | 1026.4 hPa | - | - | - | - |
| 1787872212 | 10.56° C | 87% | 1026.2 hPa | - | - | - | - |
| 1787871312 | 11.11° C | 86% | 1026.1 hPa | - | - | - | - |
| 1787870412 | 11.11° C | 86% | 1025.9 hPa | - | - | - | - |
| 1787869512 | 11.11° C | 85% | 1025.7 hPa | - | - | - | - |
| 1787868611 | 11.11° C | 85% | 1025.4 hPa | - | - | - | - |
| 1787867711 | 11.67° C | 86% | 1025.3 hPa | - | - | - | - |
| 1787866811 | 11.67° C | 86% | 1025.4 hPa | - | - | - | - |
| 1787865911 | 11.67° C | 86% | 1025.2 hPa | - | - | - | - |
| 1787865011 | 12.22° C | 88% | 1025.2 hPa | - | - | - | - |
| 1787864111 | 11.67° C | 88% | 1025 hPa | - | - | - | - |
| 1787863210 | 11.11° C | 88% | 1024.8 hPa | - | - | - | - |
| 1787862310 | 11.11° C | 87% | 1024.5 hPa | - | - | - | - |
| 1787861410 | 11.67° C | 86% | 1024.4 hPa | - | - | - | - |
| 1787860510 | 11.67° C | 85% | 1024.2 hPa | - | - | - | - |
* Rain since midnight (hover to see other rain measurements)
** Current wind speed in m/s (hover to see current wind gust speed)